WAT9298 MROC-MHTG

Flight info

Callsign WAT9298
Flight time 0h 31m
Altitude 34000
Route NANJO3U ULAPO UA502 LIBIS LIBIS1A
Aircraft B722/M-SDFGHRWY/C

Departure

Time 2026-04-28 03:44
Airport Juan Santamaría International Airport (MROC)

Arrival

Time 2026-04-28 04:15
Airport Toncontín Airport (MHTG)
Time Latitude Longitude Altitude Speed Heading
2026-04-28 03:21 9.99728 -84.20385 3043 ft 0 kts 340°
2026-04-28 03:32 9.99715 -84.20380 3042 ft 2 kts 340°
2026-04-28 03:32 9.99704 -84.20376 3042 ft 0 kts 339°
2026-04-28 03:32 9.99692 -84.20370 3042 ft 2 kts 321°
2026-04-28 03:32 9.99683 -84.20359 3041 ft 2 kts 300°
2026-04-28 03:33 9.99677 -84.20345 3041 ft 2 kts 277°
2026-04-28 03:33 9.99678 -84.20330 3042 ft 2 kts 256°
2026-04-28 03:33 9.99680 -84.20323 3042 ft 1 kts 245°
2026-04-28 03:33 9.99681 -84.20319 3042 ft 0 kts 249°
2026-04-28 03:34 9.99681 -84.20320 3042 ft 0 kts 249°
2026-04-28 03:39 9.99666 -84.20376 3040 ft 13 kts 253°
2026-04-28 03:40 9.99635 -84.20491 3035 ft 19 kts 251°
2026-04-28 03:40 9.99578 -84.20642 3022 ft 26 kts 248°
2026-04-28 03:40 9.99506 -84.20833 3010 ft 31 kts 249°
2026-04-28 03:40 9.99427 -84.21046 3002 ft 28 kts 250°
2026-04-28 03:41 9.99394 -84.21134 2998 ft 12 kts 249°
2026-04-28 03:41 9.99359 -84.21224 2996 ft 14 kts 249°
2026-04-28 03:41 9.99318 -84.21331 2991 ft 18 kts 249°
2026-04-28 03:41 9.99267 -84.21465 2983 ft 22 kts 249°
2026-04-28 03:42 9.99204 -84.21635 2971 ft 28 kts 250°
2026-04-28 03:42 9.99132 -84.21837 2958 ft 32 kts 250°
2026-04-28 03:42 9.99050 -84.22060 2948 ft 27 kts 250°
2026-04-28 03:42 9.99020 -84.22136 2944 ft 9 kts 234°
2026-04-28 03:43 9.98959 -84.22154 2945 ft 9 kts 161°
2026-04-28 03:43 9.98930 -84.22122 2948 ft 4 kts 83°
2026-04-28 03:43 9.98950 -84.22063 2951 ft 23 kts 70°
2026-04-28 03:43 9.99079 -84.21709 2969 ft 88 kts 69°
2026-04-28 03:44 9.99387 -84.20898 3005 ft 153 kts 71°
2026-04-28 03:44 9.99828 -84.19812 3381 ft 174 kts 63°
2026-04-28 03:44 10.00575 -84.18815 4016 ft 184 kts 35°
2026-04-28 03:44 10.01803 -84.18469 4607 ft 197 kts 355°
2026-04-28 03:45 10.03042 -84.19119 5177 ft 213 kts 311°
2026-04-28 03:45 10.04053 -84.20213 6099 ft 208 kts 317°
2026-04-28 03:45 10.05137 -84.21191 6715 ft 221 kts 321°
2026-04-28 03:45 10.06226 -84.22398 7210 ft 243 kts 308°
2026-04-28 03:46 10.07093 -84.23917 7909 ft 256 kts 294°
2026-04-28 03:46 10.07432 -84.25732 8641 ft 266 kts 278°
2026-04-28 03:46 10.07729 -84.27589 9375 ft 274 kts 283°
2026-04-28 03:46 10.08221 -84.29466 10156 ft 278 kts 289°
2026-04-28 03:47 10.08855 -84.31305 10934 ft 281 kts 292°
2026-04-28 03:47 10.09574 -84.33151 11731 ft 282 kts 294°
2026-04-28 03:47 10.10333 -84.34998 12493 ft 284 kts 296°
2026-04-28 03:47 10.11294 -84.36736 13145 ft 288 kts 306°
2026-04-28 03:48 10.12689 -84.38319 13241 ft 313 kts 326°
2026-04-28 03:48 10.14676 -84.39393 13437 ft 333 kts 334°
2026-04-28 03:48 10.16729 -84.40617 13913 ft 347 kts 327°
2026-04-28 03:48 10.18683 -84.42121 14480 ft 356 kts 321°
2026-04-28 03:49 10.20568 -84.43788 15053 ft 365 kts 319°
2026-04-28 03:49 10.22474 -84.45540 15665 ft 371 kts 319°
2026-04-28 03:49 10.24404 -84.47294 16327 ft 374 kts 320°
2026-04-28 03:49 10.26372 -84.49046 16997 ft 377 kts 320°
2026-04-28 03:50 10.28350 -84.50779 17654 ft 380 kts 321°
2026-04-28 03:50 10.30377 -84.52532 18293 ft 383 kts 321°
2026-04-28 03:50 10.32433 -84.54291 18886 ft 386 kts 320°
2026-04-28 03:50 10.34474 -84.56045 19464 ft 389 kts 320°
2026-04-28 03:51 10.36544 -84.57825 20021 ft 393 kts 320°
2026-04-28 03:51 10.38666 -84.59649 20568 ft 396 kts 319°
2026-04-28 03:51 10.40756 -84.61449 21099 ft 399 kts 319°
2026-04-28 03:51 10.42901 -84.63303 21658 ft 401 kts 319°
2026-04-28 03:52 10.60387 -84.78489 25954 ft 404 kts 317°
2026-04-28 03:52 10.76965 -84.92773 27898 ft 414 kts 316°
2026-04-28 03:52 10.79161 -84.94735 27896 ft 425 kts 316°
2026-04-28 03:52 10.81365 -84.96799 31792 ft 433 kts 313°
2026-04-28 03:53 10.83626 -84.98874 31951 ft 438 kts 315°
2026-04-28 03:53 10.85998 -85.00916 31940 ft 446 kts 316°
2026-04-28 03:53 10.90809 -85.05080 31945 ft 455 kts 315°
2026-04-28 03:54 10.95636 -85.09332 32053 ft 459 kts 315°
2026-04-28 03:54 11.00480 -85.13585 32263 ft 459 kts 315°
2026-04-28 03:55 11.02902 -85.15768 32383 ft 459 kts 314°
2026-04-28 03:55 11.05131 -85.18169 34465 ft 458 kts 313°
2026-04-28 03:55 11.07518 -85.20334 34339 ft 464 kts 315°
2026-04-28 03:55 11.10006 -85.22455 33967 ft 470 kts 316°
2026-04-28 03:56 11.29623 -85.40001 33972 ft 463 kts 309°
2026-04-28 03:56 11.37155 -85.48888 33933 ft 462 kts 308°
2026-04-28 03:57 11.74900 -85.84727 34476 ft 465 kts 323°
2026-04-28 03:57 11.91845 -85.95438 33743 ft 468 kts 322°
2026-04-28 03:57 11.95649 -85.99540 34082 ft 456 kts 306°
2026-04-28 03:57 12.05655 -86.11618 34326 ft 452 kts 308°
2026-04-28 03:58 12.10770 -86.16938 33887 ft 460 kts 326°
2026-04-28 03:58 12.13641 -86.18368 33792 ft 459 kts 334°
2026-04-28 03:58 12.19494 -86.21024 34094 ft 451 kts 329°
2026-04-28 03:59 12.42969 -86.36208 31557 ft 456 kts 322°
2026-04-28 03:59 12.77272 -86.68475 32738 ft 452 kts 316°
2026-04-28 03:59 12.79980 -86.70131 33568 ft 442 kts 337°
2026-04-28 03:59 12.82977 -86.70823 34252 ft 436 kts 350°
2026-04-28 04:00 12.88816 -86.72639 33396 ft 460 kts 330°
2026-04-28 04:00 12.91601 -86.74404 32203 ft 477 kts 323°
2026-04-28 04:00 12.94348 -86.76479 31225 ft 484 kts 321°
2026-04-28 04:01 12.97026 -86.78631 30154 ft 491 kts 321°
2026-04-28 04:01 13.30067 -87.04972 16795 ft 496 kts 326°
2026-04-28 04:01 13.45470 -87.15880 11445 ft 488 kts 332°
2026-04-28 04:01 13.48212 -87.17416 11140 ft 411 kts 334°
2026-04-28 04:02 13.50536 -87.18770 11122 ft 349 kts 332°
2026-04-28 04:02 13.52454 -87.19982 11068 ft 297 kts 331°
2026-04-28 04:02 13.54087 -87.21094 10947 ft 268 kts 330°
2026-04-28 04:02 13.55568 -87.22153 11060 ft 242 kts 329°
2026-04-28 04:03 13.56883 -87.23127 11019 ft 229 kts 328°
2026-04-28 04:03 13.58198 -87.24155 10914 ft 242 kts 326°
2026-04-28 04:03 13.59510 -87.25239 11070 ft 250 kts 326°
2026-04-28 04:03 13.60929 -87.26391 11185 ft 260 kts 326°
2026-04-28 04:04 13.62370 -87.27477 11443 ft 260 kts 334°
2026-04-28 04:04 13.64186 -87.28033 10891 ft 287 kts
2026-04-28 04:04 13.66184 -87.27847 10584 ft 289 kts
2026-04-28 04:04 13.68206 -87.27550 10102 ft 296 kts 11°
2026-04-28 04:05 13.70259 -87.27308 9679 ft 295 kts 358°
2026-04-28 04:05 13.72280 -87.27514 9559 ft 286 kts 356°
2026-04-28 04:05 13.74262 -87.27691 9352 ft 281 kts 358°
2026-04-28 04:05 13.76179 -87.27778 9291 ft 271 kts
2026-04-28 04:06 13.78070 -87.27705 8990 ft 271 kts
2026-04-28 04:06 13.85519 -87.27290 7906 ft 270 kts
2026-04-28 04:06 13.87343 -87.27578 7841 ft 259 kts 354°
2026-04-28 04:06 13.89026 -87.27488 8079 ft 231 kts 16°
2026-04-28 04:07 14.01492 -87.23655 6242 ft 229 kts 24°
2026-04-28 04:07 14.02943 -87.22820 5641 ft 242 kts 41°
2026-04-28 04:07 14.04103 -87.21574 5385 ft 236 kts 46°
2026-04-28 04:07 14.05363 -87.20473 5194 ft 232 kts 38°
2026-04-28 04:08 14.06596 -87.19478 5173 ft 216 kts 38°
2026-04-28 04:08 14.07775 -87.18614 5147 ft 201 kts 35°
2026-04-28 04:08 14.09009 -87.17942 4976 ft 200 kts 20°
2026-04-28 04:08 14.10345 -87.17641 5126 ft 192 kts
2026-04-28 04:09 14.11743 -87.17593 5534 ft 208 kts 356°
2026-04-28 04:09 14.13199 -87.17874 5976 ft 223 kts 350°
2026-04-28 04:09 14.14764 -87.18269 6236 ft 235 kts 347°
2026-04-28 04:09 14.16250 -87.18823 6935 ft 221 kts 333°
2026-04-28 04:10 14.19153 -87.21740 6903 ft 240 kts 304°
2026-04-28 04:10 14.19863 -87.28805 5340 ft 274 kts 258°
2026-04-28 04:10 14.18321 -87.32224 4965 ft 275 kts 212°
2026-04-28 04:10 14.16778 -87.33188 5420 ft 245 kts 213°
2026-04-28 04:11 14.15329 -87.34290 5808 ft 271 kts 216°
2026-04-28 04:11 14.15047 -87.34495 5907 ft 270 kts 212°
2026-04-28 04:11 14.13531 -87.34941 6479 ft 225 kts 167°
2026-04-28 04:11 14.12114 -87.34512 6320 ft 208 kts 156°
2026-04-28 04:12 14.10859 -87.33826 5975 ft 200 kts 142°
2026-04-28 04:12 14.09804 -87.32964 5654 ft 180 kts 137°
2026-04-28 04:12 14.08936 -87.32164 5346 ft 161 kts 133°
2026-04-28 04:12 14.08210 -87.31331 4837 ft 153 kts 127°
2026-04-28 04:13 14.06577 -87.28960 3975 ft 130 kts 122°
2026-04-28 04:13 14.06080 -87.28163 3998 ft 139 kts 123°
2026-04-28 04:13 14.05522 -87.27338 4005 ft 139 kts 123°
2026-04-28 04:13 14.04987 -87.26500 3984 ft 138 kts 121°
2026-04-28 04:14 14.04482 -87.25679 3993 ft 137 kts 121°
2026-04-28 04:14 14.03971 -87.24844 3944 ft 136 kts 119°
2026-04-28 04:14 14.03832 -87.23919 3856 ft 132 kts 83°
2026-04-28 04:14 14.04105 -87.22993 3764 ft 138 kts 63°
2026-04-28 04:15 14.04733 -87.22237 3550 ft 143 kts 32°
2026-04-28 04:15 14.05673 -87.21868 3324 ft 140 kts 19°
2026-04-28 04:15 14.06677 -87.21506 3269 ft 24 kts 18°
2026-04-28 04:16 14.06829 -87.21455 3262 ft 9 kts 12°
2026-04-28 04:16 14.06876 -87.21501 3260 ft 11 kts 258°
2026-04-28 04:16 14.06816 -87.21546 3262 ft 10 kts 201°
2026-04-28 04:16 14.06759 -87.21569 3265 ft 7 kts 201°
2026-04-28 04:17 14.06726 -87.21582 3267 ft 3 kts 199°
2026-04-28 04:17 14.06665 -87.21603 3270 ft 13 kts 198°
2026-04-28 04:17 14.06578 -87.21632 3274 ft 14 kts 198°
2026-04-28 04:17 14.06460 -87.21671 3281 ft 17 kts 198°
2026-04-28 04:18 14.06347 -87.21711 3288 ft 17 kts 200°
2026-04-28 04:18 14.06230 -87.21753 3292 ft 18 kts 199°
2026-04-28 04:18 14.06121 -87.21790 3298 ft 11 kts 199°
2026-04-28 04:18 14.06094 -87.21807 3299 ft 5 kts 239°
2026-04-28 04:19 14.06101 -87.21854 3298 ft 0 kts 288°